Weather Roundup
Issued by NWS Corpus Christi, TX

Home | Current Version | Previous Version | Text Only | Print | Product List | Glossary On
Versions: 1 2 3 4 5 6 7 8 9 10 11 12 13 14 15 16 17 18 19 20 21 22 23 24 25 26 27 28 29 30 31 32 33 34 35 36 37 38 39 40 41 42 43 44 45 46 47 48 49 50
000
ASUS44 KCRP 081710
HRRCRP

SOUTH TEXAS REGIONAL WEATHER ROUNDUP
NATIONAL WEATHER SERVICE CORPUS CHRISTI TX
1100 AM CST MON FEB 08 2016


TXZ229>244-081800-
...CORPUS CHRISTI AREA OBSERVATIONS...

CITY           SKY/WX    TMP DP  RH WIND       PRES   REMARKS
CORPUS CHRISTI PTSUNNY   61  28  28 NE24      30.39R
NAS CORPUS CHR PTSUNNY   60  38  43 N23       30.39R
ROCKPORT       MOSUNNY   64  31  28 N20       30.39R
KINGSVILLE NAS CLOUDY    61  32  33 NE18G28   30.40R
ALICE          MOSUNNY   63  26  24 NE22G28   30.40R
FALFURRIAS     MOSUNNY   61  29  29 NE18G26   30.40R
$$

...VICTORIA AREA OBSERVATIONS...

CITY           SKY/WX    TMP DP  RH WIND       PRES   REMARKS
VICTORIA       SUNNY     59  19  21 N18G28    30.41R
BEEVILLE       FAIR      61  24  24 NE21G28   30.41R
PLEASANTON     SUNNY     59  16  18 N13G20    30.46R
SAN ANTONIO    PTSUNNY   57  12  17 N17G26    30.44R
$$

...LAREDO AREA OBSERVATIONS...

CITY           SKY/WX    TMP DP  RH WIND       PRES   REMARKS
LAREDO         MOSUNNY   61  27  27 N16G22    30.47R
COTULLA        MOSUNNY   61  14  16 NE17      30.46R
DEL RIO        PTSUNNY   54  12  18 NW13      30.55R
MCALLEN        MOSUNNY   65  42  43 N14       30.37R
HEBBRONVILLE   NOT AVBL
$$

...OTHER TEXAS OBSERVATIONS...

CITY           SKY/WX    TMP DP  RH WIND       PRES   REMARKS
BROWNSVILLE    MOSUNNY   69  52  54 NW12      30.33R
HOUSTON        MOSUNNY   58  18  21 N25G32    30.34F
COL. STATION   SUNNY     55  17  22 N16G29    30.39S
AUSTIN         PTSUNNY   56  13  18 N16G24    30.43S
WACO           SUNNY     52  15  23 NW20G28   30.42S
FORT WORTH     MOSUNNY   51  15  23 N21       30.36S
WICHITA FALLS  SUNNY     49  13  23 N25G36    30.41F
LUBBOCK        MOSUNNY   46   6  19 N13       30.49R
EL PASO        PTSUNNY   46  17  31 VRB3      30.46R
$$

...MARINE OBSERVATIONS...

STATION/POSITION TIME  SKY/WX   TEMP    WIND        PRES    VSBY  WAVE   SWELL
                                AIR SEA DIR/SP/G                  HT/PER HT/PER
                 (UTC)          (F)     (DEG/KT/KT) (MB)    (MI)  (FT/S) (FT/S)
PORT ARANSAS     1700            56 59  360/ 23/ 25 1029.3R
BUOY 90 E PORT A 1650            60 70   10/ 21/ 25 1027.0R         4/ 5
BUOY 45 SE BAFFI 1650            62 69   20/ 14/ 17 1026.9R         3/ 4
BUOY 200 E PT IS 1650                                 N/A           2/ 6
BUOY 15 E GALVES 1650            54 58  330/ 17/ 21 1026.3R         4/ 4
$$



USA.gov is the U.S. government's official web portal to all federal, state and local government web resources and services.